{"data":{"norad_id":60277,"epoch":"2026-09-21T14:15:25.808544Z","epoch_age_seconds":87199,"freshness":"FRESH","line1":"1 60277U 24131Y   26264.59404871 -.00001298  00000+0 -27279-4 0  9993","line2":"2 60277  53.1565 220.2592 0001782  90.2633 269.8574 15.34386286121744","mean_motion":15.34386286,"eccentricity":0.0001782,"inclination_deg":53.1565,"raan_deg":220.2592,"arg_perigee_deg":90.2633,"mean_anomaly_deg":269.8574,"bstar":-2.7279e-5,"rev_number":12174,"period_min":93.848596871518,"perigee_km":461.52495641434,"apogee_km":463.96304640324,"semimajor_km":6840.8810014088,"source":"CELESTRAK","updated_at":"2026-09-22T09:00:49.190845Z"}}